Tracking 29487 objects as of 11-Sep-2024
HD Live streaming from Space Station
objects crossing your sky now

THORAD DELTA 1 DEB

Track THORAD DELTA 1 DEB now!
10-day predictions


NORAD ID: 42602
Int'l Code: 1974-089FT
Perigee: 1,383.7 km
Apogee: 1,896.0 km
Inclination: 101.4 °
Period: 118.9 minutes
Semi major axis: 8010 km
RCS: Unknown
Launch date: November 15, 1974
Source: United States (US)
Launch site: AIR FORCE WESTERN TEST RANGE (AFWTR)

Note: This is SATELLITE DEBRIS
Your satellite tracking list
Your tracking list is empty




NASA's NSSDC Master Catalog

Two Line Element Set (TLE):
1 42602U 74089FT  24250.27283838  .00000536  00000-0  53199-2 0  9999
2 42602 101.4073 269.1082 0319772 196.2037 162.8592 12.10829806891555
Source of the keplerian elements: AFSPC